Location: Ch?enovice
(49.7164°N, 15.2160°E)
Time: 20:32:06
(UTC+00:00)

ATLAS 2AS CENTAUR R/B - Pass Details

Date: 23 May 2024
Orbit: 1017 x 1193 km, 63.7° (Epoch: 20 June)

Event Time Altitude Azimuth Distance (km) Brightness Sun altitude
Rises 01:31:39 0° 317° (NW) 3,915 5.8 -11.6°
Reaches altitude 10° 01:34:23 10° 319° (NW) 2,930 5.1 -11.4°
Maximum altitude 01:41:18 76° 45° (NE) 1,082 2.9 -10.7°
Drops below altitude 10° 01:47:57 10° 132° (SE) 2,818 4.9 -10.0°
Sets 01:50:31 0° 134° (SE) 3,756 5.5 -9.7°
